[[{"header":{"parameterUnit":"m.s-1","parameterCategory":1,"la1":30.2991,"la2":30.254,"lo1":-89.0895,"lo2":-89.0444,"dy":0.0017,"dx":0.0017,"nx":28,"ny":28,"refTime":"2023-08-20T03:00:00:Z","depth":0,"parameterNumber":2,"parameterNumberName":"U-component_of_WINDS"},"data":[0,0,0,0,0,0,0,0,0,0,0,0,0,0,0,0,0,0,0,0,0,0,0,0,0,0,0,0,0,0,0,0,0,0,0,0,0,0,0,0,0,0,0,0,0,0,0,0,0,0,0,0,0,0,0,0,0,0,-6.3512,-6.3511,0,-6.345,-6.345,-6.3449,-6.331,-6.3307,-6.3304,-6.3301,-6.3242,-6.3243,-6.3244,0,0,0,0,0,0,0,0,0,0,0,0,0,-6.3513,-6.3514,-6.3512,-6.3511,-6.351,-6.3451,-6.345,-6.3449,-6.331,-6.3307,-6.3303,-6.33,-6.3241,-6.3243,-6.3244,0,0,0,0,0,0,0,0,0,0,0,0,0,-6.3489,-6.3514,-6.3512,-6.3434,-6.3426,-6.3451,-6.345,-6.3449,-6.3311,-6.3307,-6.3302,-6.3298,-6.3241,-6.3242,-6.3244,-6.334,0,0,-6.3249,-6.325,0,0,0,0,0,0,0,0,-6.349,-6.3489,-6.3446,-6.3439,-6.3431,-6.3383,-6.3428,-6.3412,-6.3312,-6.3355,-6.3301,-6.3296,-6.3292,-6.329,-6.3288,-6.3338,-6.3335,-6.3249,-6.325,-6.3251,-6.3251,0,0,0,0,0,0,0,-6.3492,-6.349,-6.3487,-6.3446,-6.3436,-6.3403,-6.3395,-6.3425,-6.3349,-6.3351,-6.3341,-6.3335,-6.3287,-6.3286,-6.3285,-6.3334,-6.3249,-6.3251,-6.3252,-6.3252,-6.3462,-6.3466,0,0,0,0,0,0,-6.3504,-6.3493,-6.3489,-6.3486,-6.345,-6.3407,-6.3398,-6.3403,-6.3348,-6.3335,-6.3339,-6.3329,-6.3286,-6.3283,-6.3283,-6.3392,-6.3251,-6.3252,-6.3253,-6.3457,-6.3463,-6.3468,0,0,0,0,0,0,-6.3505,-6.3505,-6.3492,-6.3486,-6.3482,-6.3411,-6.3419,-6.3404,-6.3402,-6.3339,-6.3325,-6.3351,-6.3282,-6.328,-6.3327,-6.3388,-6.3253,-6.3255,-6.3452,-6.3459,-6.3466,-6.3611,0,0,0,0,0,0,-6.3506,-6.3506,-6.3541,-6.3488,-6.3483,-6.3536,-6.3422,-6.3406,-6.3405,-6.3392,-6.3347,-6.3335,-6.3279,-6.3326,-6.3329,-6.3388,-6.3256,-6.3446,-6.3455,-6.3463,-6.3601,-6.3622,-6.3641,0,0,0,0,0,-6.3506,-6.3585,-6.3543,-6.3544,-6.3524,-6.354,-6.3537,-6.3469,-6.3411,-6.3446,-6.3405,-6.3337,-6.3382,-6.3332,-6.3334,-6.3394,-6.3442,-6.3453,-6.3463,-6.3592,-6.3618,-6.364,0,0,0,0,0,0,-6.3646,-6.3576,-6.3529,-6.3593,-6.3574,-6.3516,-6.3558,-6.3499,-6.3497,-6.3484,-6.3402,-6.3393,-6.3451,-6.3428,-6.3373,-6.3486,-6.3401,-6.3412,-6.3498,-6.3523,-6.3542,-6.3546,-6.3257,0,0,0,0,0,-6.3685,-6.3702,-6.364,-6.3702,-6.3695,-6.3629,-6.3633,-6.3583,-6.356,-6.3551,-6.3514,-6.3495,-6.3505,-6.3513,-6.3518,-6.3598,-6.3587,-6.3641,-6.3661,-6.3678,-6.3688,-6.373,-6.3753,-6.3502,-6.3502,-6.3502,0,0,-6.3764,-6.3728,-6.3743,-6.373,-6.3708,-6.373,-6.3623,-6.3649,-6.3664,-6.3555,-6.3596,-6.357,-6.3544,-6.3608,-6.3634,-6.359,-6.3756,-6.3691,-6.3705,-6.3706,-6.3743,-6.3767,-6.3788,-6.3509,-6.3508,-6.3507,0,0,-6.3918,-6.3893,-6.3941,-6.3923,-6.3893,-6.3849,-6.3862,-6.3814,-6.3792,-6.3832,-6.3751,-6.377,-6.3788,-6.3773,-6.3768,-6.3922,-6.3859,-6.3926,-6.403,-6.4071,-6.4091,-6.4108,-6.4163,-6.4183,-6.3937,-6.3937,-6.3937,0,-6.402,-6.4047,-6.3974,-6.4006,-6.4004,-6.3907,-6.3957,-6.3943,-6.3917,-6.3918,-6.3869,-6.3891,-6.3867,-6.3927,-6.3965,-6.3964,-6.3976,-6.3929,-6.4094,-6.411,-6.4125,-6.4176,-6.4197,-6.3945,-6.3945,-6.3944,-6.3943,0,-6.4174,-6.4195,-6.4239,-6.4215,-6.4218,-6.4259,-6.4194,-6.4206,-6.4158,-6.412,-6.4164,-6.4132,-6.413,-6.4141,-6.4093,-6.4195,-6.4168,-6.4109,-6.4021,-6.4159,-6.4205,-6.4224,-6.3957,-6.3954,-6.3952,-6.395,0,0,-6.4411,-6.4349,-6.4366,-6.4355,-6.4317,-6.4332,-6.4371,-6.4368,-6.438,-6.4367,-6.4398,-6.4417,-6.4362,-6.4357,-6.4308,-6.4345,-6.4469,-6.428,-6.4278,-6.4315,-6.4579,-6.4623,-6.4647,-6.4428,-6.4432,-6.4434,-6.4581,0,-6.4554,-6.4614,-6.4552,-6.4625,-6.4644,-6.4555,-6.4589,-6.457,-6.4537,-6.455,-6.4514,-6.4529,-6.4455,-6.4451,-6.4484,-6.4447,-6.452,-6.4436,-6.4456,-6.4458,-6.4463,-6.4671,-6.4717,-6.4857,-6.4599,-6.4602,-6.4604,0,-6.4729,-6.4724,-6.4799,-6.4758,-6.4763,-6.4795,-6.4788,-6.4802,-6.478,-6.4754,-6.475,-6.4691,-6.4727,-6.4645,-6.4695,-6.4639,-6.4645,-6.4628,-6.4632,-6.4629,-6.4538,-6.4673,-6.4899,-6.492,-6.4632,-6.463,-6.4628,0,-6.4893,-6.4905,-6.4952,-6.4946,-6.4899,-6.4923,-6.4905,-6.4879,-6.4883,-6.4879,-6.488,-6.4881,-6.4882,-6.4885,-6.4829,-6.4774,-6.4886,-6.4799,-6.4866,-6.4867,-6.4891,-6.489,-6.512,-6.4899,-6.4898,-6.4898,-6.4897,0,-6.5059,-6.5108,-6.5025,-6.5054,-6.5107,-6.5038,-6.5093,-6.5066,-6.5045,-6.5068,-6.4992,-6.5016,-6.4941,-6.4958,-6.4915,-6.4963,-6.4964,-6.4945,-6.4932,-6.495,-6.4953,-6.4951,-6.4939,-6.4903,-6.4902,-6.4901,-6.49,0,-6.5249,-6.5196,-6.5241,-6.5194,-6.5184,-6.5225,-6.5186,-6.5212,-6.5175,-6.5206,-6.5209,-6.5152,-6.5168,-6.5113,-6.512,-6.5091,-6.5163,-6.5135,-6.517,-6.516,-6.523,-6.5224,-6.5466,-6.5494,-6.5256,-6.5259,-6.5261,0,-6.5357,-6.5393,-6.5351,-6.5361,-6.5347,-6.5364,-6.5367,-6.5301,-6.5308,-6.5288,-6.5317,-6.5327,-6.533,-6.5361,-6.5321,-6.5326,-6.5298,-6.5382,-6.5298,-6.5315,-6.5298,-6.5295,-6.5299,-6.5399,-6.5402,-6.5404,-6.5406,0,-6.5554,-6.5527,-6.5534,-6.5534,-6.554,-6.5536,-6.5527,-6.5541,-6.547,-6.5482,-6.5497,-6.5501,-6.5509,-6.552,-6.5518,-6.5501,-6.5443,-6.5434,-6.5449,-6.5467,-6.5485,-6.5475,-6.5215,-6.5427,-6.5425,-6.5424,-6.5423,-6.5422,-6.5706,-6.5734,-6.5709,-6.5721,-6.5708,-6.5702,-6.5724,-6.5692,-6.5703,-6.5703,-6.5665,-6.5688,-6.5669,-6.566,-6.5649,-6.5668,-6.5629,-6.5652,-6.5657,-6.5663,-6.5675,-6.5484,-6.5668,-6.5667,-6.5666,-6.5666,-6.5665,0,-6.5898,-6.5879,-6.589,-6.5881,-6.5891,-6.5836,-6.5824,-6.5836,-6.5858,-6.5844,-6.585,-6.5869,-6.5881,-6.5843,-6.5849,-6.5872,-6.5845,-6.5876,-6.5872,-6.5869,-6.571,-6.5695,-6.5897,-6.5897,-6.5897,-6.5897,-6.5897,-6.5897,-6.5999,-6.6044,-6.6015,-6.6054,-6.6034,-6.6056,-6.6055,-6.605,-6.6039,-6.6063,-6.6072,-6.6048,-6.6025,-6.603,-6.6039,-6.6027,-6.6033,-6.6072,-6.6052,-6.5903,-6.588,-6.5859,-6.5844,-6.6074,-6.6075,-6.621,-6.6211,-6.6212]},{"header":{"parameterUnit":"m.s-1","parameterCategory":1,"la1":30.2991,"la2":30.254,"lo1":-89.0895,"lo2":-89.0444,"dy":0.0017,"dx":0.0017,"nx":28,"ny":28,"refTime":"2023-08-20T03:00:00:Z","depth":0,"parameterNumber":3,"parameterNumberName":"V-component_of_WINDS"},"data":[0,0,0,0,0,0,0,0,0,0,0,0,0,0,0,0,0,0,0,0,0,0,0,0,0,0,0,0,0,0,0,0,0,0,0,0,0,0,0,0,0,0,0,0,0,0,0,0,0,0,0,0,0,0,0,0,0,0,2.163,2.163,0,2.1634,2.1634,2.1634,2.1701,2.1703,2.1704,2.1706,2.1702,2.1701,2.1699,0,0,0,0,0,0,0,0,0,0,0,0,0,2.1676,2.1675,2.163,2.163,2.163,2.1634,2.1634,2.1634,2.1701,2.1703,2.1705,2.1707,2.1703,2.1701,2.1699,0,0,0,0,0,0,0,0,0,0,0,0,0,2.1665,2.1674,2.163,2.1664,2.1667,2.1634,2.1634,2.1634,2.17,2.1703,2.1705,2.1708,2.1704,2.1701,2.1698,2.163,0,0,2.1691,2.1689,0,0,0,0,0,0,0,0,2.1666,2.1663,2.1659,2.1662,2.1665,2.167,2.1649,2.1632,2.1699,2.1687,2.1706,2.1709,2.1689,2.1688,2.1682,2.163,2.163,2.169,2.1689,2.1688,2.1687,0,0,0,0,0,0,0,2.1666,2.1664,2.1631,2.1659,2.1663,2.1678,2.1679,2.1646,2.1673,2.1689,2.1694,2.1694,2.1691,2.1685,2.1683,2.163,2.169,2.1688,2.1687,2.1686,2.1522,2.152,0,0,0,0,0,0,2.1663,2.1664,2.1631,2.1631,2.1672,2.1675,2.1676,2.1665,2.1674,2.1678,2.1691,2.1697,2.1688,2.1686,2.1683,2.1603,2.1688,2.1685,2.1684,2.1525,2.1522,2.1519,0,0,0,0,0,0,2.1664,2.166,2.1631,2.1649,2.1647,2.1671,2.1658,2.1664,2.1658,2.1676,2.168,2.168,2.169,2.1686,2.1643,2.1604,2.1684,2.1682,2.1528,2.1524,2.152,2.1443,0,0,0,0,0,0,2.1665,2.166,2.1635,2.1648,2.1645,2.1593,2.1656,2.1662,2.1654,2.1661,2.1667,2.167,2.1692,2.1647,2.1641,2.1602,2.168,2.1532,2.1527,2.1522,2.145,2.1437,2.1427,0,0,0,0,0,2.1666,2.1611,2.1633,2.1629,2.1615,2.159,2.1589,2.1617,2.1651,2.1625,2.1637,2.167,2.161,2.1642,2.1636,2.1595,2.1535,2.1528,2.1522,2.1455,2.144,2.1427,0,0,0,0,0,0,2.1589,2.1613,2.1638,2.1586,2.1586,2.1602,2.157,2.16,2.1588,2.1595,2.1628,2.1629,2.158,2.1584,2.1619,2.153,2.1578,2.157,2.1529,2.1515,2.1504,2.1502,2.1678,0,0,0,0,0,2.1567,2.1547,2.1568,2.152,2.1519,2.1545,2.1535,2.1557,2.1558,2.1557,2.1566,2.1563,2.1544,2.153,2.1513,2.1452,2.1453,2.1421,2.141,2.14,2.1392,2.1359,2.1345,2.1498,2.1498,2.1498,0,0,2.1519,2.153,2.1514,2.1505,2.1508,2.1484,2.1544,2.1517,2.1499,2.1552,2.1512,2.1519,2.1518,2.1466,2.1443,2.1467,2.1351,2.1392,2.1384,2.1381,2.1351,2.1337,2.1324,2.1494,2.1495,2.1495,0,0,2.142,2.1427,2.1388,2.139,2.1395,2.1413,2.1403,2.1415,2.1422,2.1384,2.1424,2.1403,2.1369,2.1367,2.1361,2.1265,2.1294,2.1258,2.1197,2.1165,2.1153,2.1142,2.1106,2.1093,2.1251,2.1251,2.1251,0,2.1359,2.1327,2.1363,2.1334,2.1328,2.1379,2.1339,2.1338,2.1336,2.133,2.1358,2.1318,2.1321,2.1269,2.1246,2.124,2.1229,2.1256,2.1152,2.1142,2.1132,2.1098,2.1085,2.1246,2.1247,2.1247,2.1248,0,2.1251,2.1229,2.1197,2.1196,2.1187,2.1152,2.1182,2.1168,2.1192,2.1206,2.1166,2.1173,2.1158,2.1148,2.117,2.1099,2.1114,2.1147,2.1195,2.1113,2.1081,2.1069,2.124,2.1241,2.1243,2.1244,0,0,2.11,2.1123,2.111,2.1111,2.1121,2.1103,2.1071,2.106,2.1047,2.1045,2.1017,2.0989,2.102,2.1014,2.1036,2.1009,2.093,2.1045,2.1045,2.1022,2.0852,2.0825,2.081,2.0952,2.0949,2.0947,2.0851,0,2.1003,2.0951,2.0983,2.0925,2.0904,2.0954,2.0926,2.0928,2.0941,2.0924,2.0939,2.0918,2.0961,2.0958,2.0933,2.0945,2.0896,2.0953,2.0923,2.0922,2.092,2.0793,2.0765,2.0674,2.0839,2.0837,2.0836,0,2.0882,2.0877,2.0818,2.0833,2.0826,2.08,2.0793,2.0777,2.0781,2.0792,2.0787,2.0817,2.0785,2.0836,2.0791,2.0829,2.0819,2.0824,2.0821,2.0817,2.0872,2.0784,2.0645,2.0631,2.0817,2.0818,2.082,0,2.0775,2.0754,2.0716,2.0716,2.0733,2.0714,2.072,2.0727,2.0718,2.0712,2.0707,2.0696,2.0689,2.0679,2.0705,2.074,2.0656,2.0709,2.0663,2.0662,2.0641,2.0641,2.0496,2.0638,2.0639,2.0639,2.0639,0,2.0662,2.0623,2.0669,2.0645,2.0603,2.0641,2.0597,2.0609,2.0615,2.0593,2.0635,2.0613,2.065,2.0631,2.0651,2.0611,2.0608,2.0615,2.062,2.0609,2.0608,2.0601,2.0607,2.0635,2.0636,2.0637,2.0637,0,2.0535,2.0564,2.0526,2.0547,2.0552,2.0519,2.0537,2.0515,2.0533,2.0504,2.05,2.0527,2.0507,2.0533,2.0515,2.0529,2.0473,2.0489,2.0472,2.0476,2.0428,2.0431,2.0272,2.0252,2.0409,2.0407,2.0406,0,2.0459,2.0431,2.0451,2.044,2.0445,2.0427,2.042,2.0457,2.0447,2.0451,2.0428,2.0413,2.0402,2.0369,2.0385,2.0372,2.0387,2.0332,2.0384,2.0375,2.0384,2.0384,2.0381,2.032,2.0318,2.0316,2.0315,0,2.0322,2.0339,2.0328,2.0322,2.0313,2.031,2.0309,2.0298,2.0337,2.0324,2.0306,2.0298,2.0282,2.0266,2.0258,2.0262,2.0294,2.0299,2.0287,2.0275,2.0266,2.0269,2.044,2.0302,2.0303,2.0304,2.0305,2.0305,2.0217,2.0194,2.0205,2.0192,2.0196,2.0196,2.0176,2.0193,2.018,2.0171,2.0194,2.017,2.0176,2.0169,2.017,2.0151,2.0174,2.0158,2.0153,2.0148,2.014,2.0271,2.015,2.015,2.0151,2.0151,2.0151,0,2.008,2.0091,2.0078,2.0078,2.0067,2.0103,2.0105,2.0093,2.0073,2.0076,2.0066,2.0046,2.0031,2.0048,2.0036,2.0017,2.0032,2.0013,2.0013,2.0013,2.012,2.0131,2.0001,2.0001,2.0001,2.0001,2.0002,2.0002,2.0008,1.9972,1.999,1.9956,1.9966,1.9946,1.9944,1.9943,1.9946,1.9922,1.9911,1.9924,1.9932,1.9922,1.9909,1.9915,1.9907,1.9882,1.9892,1.9991,2.0006,2.002,2.003,1.9881,1.9881,1.9787,1.9786,1.9786]}]]